Probability
0 0 0 0 0 0 0 2 8 13 16 17 18 16 10 3 1 0 0 0 0 0 0 0 0 0 0 0 0 0 0 0 0 0 0 0 0 0 0 0 0 0 0
0 0 0 0 0 0 0 1 5 8 9 11 12 10 5 2 0 0 0 0 0 0 0 0 0 0 0 0 0 0 0 0 0 0 0 0 0 0 0 0 0 0 0
0 0 0 0 0 0 0 0 1 2 2 3 4 3 1 0 0 0 0 0 0 0 0 0 0 0 0 0 0 0 0 0 0 0 0 0 0 0 0 0 0 0 0
0 0 0 0 0 0 0 0 0 0 0 0 0 0 0 0 0 0 0 0 0 0 0 0 0 0 0 0 0 0 0 0 0 0 0 0 0 0 0 0 0 0 0
0 0 0 0 0 0 0 0 0 0 0 0 0 0 0 0 0 0 0 0 0 0 0 0 0 0 0 0 0 0 0 0 0 0 0 0 0 0 0 0 0 0 0
0 0 0 0 0 0 0 0 0 0 0 0 0 0 0 0 0 0 0 0 0 0 0 0 0 0 0 0 0 0 0 0 0 0 0 0 0 0 0 0 0 0 0
0 0 0 0 0 0 0 0 0 0 0 0 0 0 0 0 0 0 0 0 0 0 0 0 0 0 0 0 0 0 0 0 0 0 0 0 0 0 0 0 0 0 0
0 0 0 0 0 0 0 0 0 0 0 0 0 0 0 0 0 0 0 0 0 0 0 0 0 0 0 0 0 0 0 0 0 0 0 0 0 0 0 0 0 0 0
0 0 0 0 0 0 0 0 0 0 0 0 0 0 0 0 0 0 0 0 0 0 0 0 0 0 0 0 0 0 0 0 0 0 0 0 0 0 0 0 0 0 0
0 0 0 0 0 0 0 0 0 0 0 0 0 0 0 0 0 0 0 0 0 0 0 0 0 0 0 0 0 0 0 0 0 0 0 0 0 0 0 0 0 0 0
0 0 0 0 0 0 0 0 0 0 0 0 0 0 0 0 0 0 0 0 0 0 0 0 0 0 0 0 0 0 0 0 0 0 0 0 0 0 0 0 0 0 0
0 0 0 0 0 0 0 0 0 0 0 0 0 0 0 0 0 0 0 0 0 0 0 0 0 0 0 0 0 0 0 0 0 0 0 0 0 0 0 0 0 0 0
0 0 0 0 0 0 0 0 0 0 0 0 0 0 0 0 0 0 0 0 0 0 0 0 0 0 0 0 0 0 0 0 0 0 0 0 0 0 0 0 0 0 0
0 0 0 0 0 0 0 0 0 0 0 0 0 0 0 0 0 0 0 0 0 0 0 0 0 0 0 0 0 0 0 0 0 0 0 0 0 0 0 0 0 0 0
0 0 0 0 0 0 0 0 0 0 0 0 0 0 0 0 0 0 0 0 0 0 0 0 0 0 0 0 0 0 0 0 0 0 0 0 0 0 0 0 0 0 0
0 0 0 0 0 0 0 0 0 0 0 0 0 0 0 0 0 0 0 0 0 0 0 0 0 0 0 0 0 0 0 0 0 0 0 0 0 0 0 0 0 0 0
0 0 0 0 0 0 0 0 0 0 0 0 0 0 0 0 0 0 0 0 0 0 0 0 0 0 0 0 0 0 0 0 0 0 0 0 0 0 0 0 0 0 0
0 0 0 0 0 0 0 0 0 0 0 0 0 0 0 0 0 0 0 0 0 0 0 0 0 0 0 0 0 0 0 0 0 0 0 0 0 0 0 0 0 0 0
0 0 0 0 0 0 0 0 0 0 0 0 0 0 0 0 0 0 0 0 0 0 0 0 0 0 0 0 0 0 0 0 0 0 0 0 0 0 0 0 0 0 0
0 0 0 0 0 0 0 0 0 0 0 0 0 0 0 0 0 0 0 0 0 0 0 0 0 0 0 0 0 0 0 0 0 0 0 0 0 0 0 0 0 0 0
0 0 0 0 0 0 0 0 0 0 0 0 0 0 0 0 0 0 0 0 0 0 0 0 0 0 0 0 0 0 0 0 0 0 0 0 0 0 0 0 0 0 0
0 0 0 0 0 0 0 0 0 0 0 0 0 0 0 0 0 0 0 0 0 0 0 0 0 0 0 0 0 0 0 0 0 0 0 0 0 0 0 0 0 0 0
0 0 0 0 0 0 0 0 0 0 0 0 0 0 0 0 0 0 0 0 0 0 0 0 0 0 0 0 0 0 0 0 0 0 0 0 0 0 0 0 0 0 0
0 0 0 0 0 0 0 0 0 0 0 0 0 0 0 0 0 0 0 0 0 0 0 0 0 0 0 0 0 0 0 0 0 0 0 0 0 0 0 0 0 0 0
0 0 0 0 0 0 0 0 0 0 0 0 0 0 0 0 0 0 0 0 0 0 0 0 0 0 0 0 0 0 0 0 0 0 0 0 0 0 0 0 0 0 0
0 0 0 0 0 0 0 0 0 0 0 0 0 0 0 0 0 0 0 0 0 0 0 0 0 0 0 0 0 0 0 0 0 0 0 0 0 0 0 0 0 0 0
Wind_Speed
11 10 10 9 9 8 7 7 7 6 5 6 7 7 8 9 9 9 8 9 10 9 9 10 9 8 6 5 5 5 4 4 3 2 2 2 4 5 6 7 7 8 9
11 10 10 9 8 7 6 5 4 3 3 3 4 5 6 8 9 10 10 11 11 11 11 11 11 8 8 6 5 5 4 3 3 3 3 4 5 6 7 8 8 8 9
11 10 9 9 8 7 6 5 3 2 1 2 2 4 5 6 8 8 9 9 9 9 10 10 10 10 9 6 6 5 3 3 2 2 3 3 4 5 7 8 9 9 9
10 10 10 10 9 8 7 6 5 4 4 5 5 5 5 6 6 8 9 10 10 10 9 9 9 8 8 7 5 5 4 3 3 4 5 5 5 6 6 7 7 7 8
10 10 10 10 9 9 9 9 9 8 8 8 9 9 9 7 7 10 10 11 12 12 10 9 8 9 9 6 4 4 4 3 4 4 5 5 6 5 6 6 8 8 9
9 9 9 9 10 10 10 10 10 10 10 10 10 10 10 8 14 16 13 11 11 11 10 9 8 8 7 5 4 5 6 5 5 5 6 7 7 7 6 6 8 9 8
8 9 9 9 10 10 10 10 10 10 11 11 11 11 11 14 18 19 17 11 11 9 8 7 5 5 5 2 1 3 5 7 8 7 8 8 8 7 7 9 9 10 11
8 8 8 9 9 9 10 10 10 9 10 10 11 11 12 14 19 20 18 12 10 9 7 6 5 3 2 2 3 4 5 5 6 6 7 8 8 8 8 9 11 12 13
8 8 8 8 8 9 9 9 9 9 10 9 10 11 12 13 17 16 13 7 7 7 5 4 2 1 2 4 4 4 5 5 6 9 11 12 14 14 12 9 9 9 10
7 7 7 8 8 9 9 9 8 9 9 9 10 9 9 9 12 12 9 5 5 4 3 2 1 2 3 4 4 5 6 6 6 7 8 9 10 11 12 10 8 8 7
6 7 8 8 8 8 8 8 8 8 9 9 9 7 6 7 8 9 6 3 3 2 1 0 1 3 5 5 5 4 6 8 8 8 7 7 7 6 6 6 6 7 8
6 7 7 7 7 6 8 7 7 7 8 7 6 6 5 5 5 6 6 4 3 1 1 1 2 4 6 5 5 7 10 9 6 6 7 7 6 6 5 6 8 9 11
7 7 7 7 7 6 6 6 5 5 4 4 4 3 3 3 4 6 5 4 4 3 2 4 4 5 5 5 6 8 7 5 5 6 6 6 6 7 7 7 8 9 12
7 7 6 6 6 6 5 4 4 3 3 3 2 2 2 2 1 1 1 2 3 3 3 2 3 4 5 6 6 4 4 4 5 6 7 7 7 7 7 7 7 7 8
7 6 5 5 5 5 5 5 4 4 4 3 2 2 1 1 2 4 4 3 4 4 4 3 4 3 3 3 3 4 4 4 5 5 6 7 7 7 7 6 6 6 7
6 5 4 4 3 3 4 5 7 6 7 5 3 2 1 2 3 4 5 5 5 6 4 4 4 4 4 4 4 4 4 4 4 5 6 7 7 7 8 7 7 8 9
6 5 4 3 3 3 2 2 2 3 5 5 5 4 3 3 3 4 5 5 5 4 4 4 4 4 4 4 4 5 5 5 5 6 7 7 7 7 8 8 8 8 9
5 5 4 3 3 2 2 1 0 1 1 1 2 4 4 4 4 4 5 4 4 3 3 4 4 4 4 5 5 5 6 6 5 6 7 7 7 7 8 9 9 10 10
5 4 4 3 3 2 2 1 1 1 2 2 2 2 3 4 4 4 4 4 4 4 4 4 5 5 5 5 5 6 6 7 7 7 7 8 7 8 9 9 10 14 13
4 6 5 3 3 2 2 2 2 2 2 3 3 3 3 4 4 4 3 4 4 5 5 5 5 6 6 6 6 6 7 7 8 8 8 8 8 8 10 11 11 11 11
5 6 6 4 3 3 2 2 2 2 2 3 3 4 7 5 4 5 5 4 5 5 5 6 6 6 6 6 6 7 9 8 8 8 8 8 8 9 9 10 11 12 12
5 5 4 3 3 3 3 2 2 2 3 4 4 4 6 5 5 5 5 5 5 5 6 6 7 7 6 7 7 8 8 9 9 9 9 9 9 10 10 11 11 12 13
5 5 4 3 3 4 3 2 2 3 3 4 4 4 4 4 5 5 6 6 6 6 6 6 7 7 7 7 7 8 9 10 9 10 10 10 10 10 11 12 15 16 15
5 5 5 4 4 3 3 2 2 3 4 4 4 5 5 5 6 7 7 6 6 7 7 7 8 10 13 10 9 9 10 11 11 10 13 13 13 12 13 14 15 18 17
5 5 5 4 4 3 3 3 3 3 4 4 4 5 5 6 6 7 7 7 8 8 9 9 8 9 12 14 13 12 16 21 20 14 13 13 15 16 16 17 16 17 17
6 5 5 4 4 3 3 3 3 4 4 4 5 5 6 6 7 7 7 7 7 8 9 9 10 12 14 13 15 17 20 22 23 23 16 13 14 15 16 15 19 18 19
Wind_Direction
332 324 317 313 311 302 289 281 272 260 245 231 221 209 200 193 187 184 181 175 173 166 160 156 147 139 128 117 106 100 94 102 141 144 170 196 219 239 253 264 272 277 280
335 330 328 324 321 316 310 304 293 275 252 228 205 191 184 180 177 177 174 170 168 164 157 148 142 133 123 117 112 110 114 118 143 184 203 208 232 253 268 275 278 279 280
344 343 344 343 340 337 337 340 346 4 62 106 143 154 160 164 165 165 161 156 152 146 143 140 135 130 124 120 118 121 124 132 152 208 236 230 242 251 268 272 275 276 279
353 360 3 1 1 5 11 22 34 49 72 85 92 100 111 123 131 133 130 126 121 115 115 116 117 120 124 127 127 134 140 158 187 221 244 248 250 257 264 275 282 284 286
5 13 14 13 19 28 35 42 50 58 65 75 82 85 88 94 105 112 111 112 109 102 96 94 98 109 123 129 136 153 168 191 211 231 246 255 258 262 268 282 287 293 291
18 22 24 28 34 40 45 51 57 62 68 73 78 84 86 92 108 108 108 103 102 102 100 95 96 97 112 126 159 190 202 215 228 240 255 260 269 277 283 286 292 294 296
29 31 34 39 44 45 51 57 62 66 72 75 78 81 88 99 103 102 99 96 95 95 99 102 102 105 102 109 220 256 246 251 252 259 266 271 281 286 292 289 284 283 282
39 39 42 49 54 56 59 61 61 65 70 74 78 80 82 87 92 93 93 88 90 93 95 101 109 118 144 203 222 236 246 249 256 264 272 279 281 283 277 277 281 282 281
42 42 47 56 62 64 63 62 62 67 69 69 73 77 80 83 87 92 93 93 97 99 105 116 132 170 229 254 250 252 261 263 257 267 277 280 282 281 282 283 279 278 282
43 48 54 61 66 68 68 67 67 70 72 74 73 75 83 91 97 100 101 103 110 117 128 144 197 295 288 284 280 273 277 288 292 285 278 275 275 275 274 265 263 265 273
54 58 59 63 69 74 76 74 77 80 81 80 80 79 84 101 111 108 101 93 99 106 102 21 355 316 306 309 305 289 294 298 295 293 290 285 279 272 265 260 255 251 255
74 70 65 66 71 78 85 84 86 92 93 92 91 86 76 80 93 99 90 77 60 31 354 336 327 313 314 321 311 306 301 297 289 285 283 283 286 287 285 279 270 260 252
92 84 81 80 77 79 85 90 88 86 89 92 94 94 87 71 71 68 59 45 20 343 338 332 330 334 322 307 303 304 298 283 278 278 281 286 289 289 288 281 272 262 258
107 99 94 90 86 81 76 74 79 81 90 98 98 99 99 97 75 44 18 356 338 324 314 316 311 313 298 294 295 284 276 280 287 284 287 290 292 284 277 279 285 292 287
116 109 102 94 97 89 78 67 67 58 45 61 71 65 41 42 16 353 337 330 330 330 313 290 291 296 292 289 287 285 278 270 269 277 283 285 285 284 283 285 281 282 275
132 128 121 117 109 105 105 96 73 72 77 72 58 20 348 323 331 331 329 329 325 326 300 287 293 296 300 304 301 294 288 279 279 280 278 277 281 284 286 284 277 275 277
147 142 137 137 133 129 126 130 128 92 72 55 35 12 346 331 327 325 326 329 317 309 283 285 289 291 291 289 288 287 285 284 283 275 273 275 276 277 279 281 281 279 278
149 144 148 148 150 153 155 163 230 268 264 264 13 350 338 326 321 322 329 308 281 272 278 280 282 284 285 286 285 285 286 287 279 275 274 272 271 272 275 277 279 280 283
158 154 155 152 154 156 155 164 189 245 278 291 288 288 314 306 293 301 308 290 292 287 281 279 280 281 281 281 280 280 280 280 280 279 275 272 270 269 272 274 278 281 282
164 160 158 160 162 167 175 192 216 244 264 277 288 303 304 291 288 292 291 286 282 282 281 280 280 279 280 279 278 278 278 277 278 274 274 274 272 269 271 275 276 279 280
159 162 168 170 175 180 190 206 227 253 272 284 290 300 303 302 296 294 292 285 281 281 281 281 280 280 275 274 273 274 275 276 276 276 275 275 274 272 272 273 276 277 279
162 164 173 179 179 185 193 206 233 259 277 286 295 296 300 293 286 286 287 285 282 278 277 277 277 275 273 271 272 273 273 273 273 273 273 274 273 273 274 275 277 279 280
165 167 173 179 183 189 191 213 241 263 278 286 291 293 292 288 287 286 285 285 284 281 278 273 272 272 269 264 261 261 264 268 271 275 278 279 278 277 277 278 278 281 281
170 175 179 180 185 196 208 225 245 264 277 283 286 286 286 287 287 286 285 283 282 279 275 271 268 270 273 274 270 263 259 263 268 269 269 269 273 273 273 274 276 278 281
175 180 183 186 191 200 213 230 248 261 271 277 281 284 286 286 286 286 284 282 281 278 278 277 272 272 273 273 273 272 273 276 278 275 270 269 270 271 274 277 279 282 284
179 182 184 185 192 202 215 233 247 260 267 273 277 279 282 283 284 285 285 282 282 282 282 281 277 279 281 280 279 279 281 285 287 288 286 279 277 276 279 280 285 287 288